ギブス彗星

428P/Gibbs (2008)

English version
Home page
Updated on October 6, 2021

---------------------------------------------------------------------

・ プロフィール

・ 軌道要素

                    Epoch = 2008 May  14.0 TT
     T = 2008 May  16.69187 TT        Peri. =  36.84230
     e = 0.5212093                    Node  = 299.41912 2000.0
     q = 1.6647813 AU                 Incl. =   8.53290
       a =  3.4770544 AU   n = 0.15201514   P =   6.48 years

・ 光度変化

        m1 = 14.0 + 5 logΔ + 10.0 log r

---------------------------------------------------------------------

軌道要素はCBET 5025に掲載されたものです。
光度グラフはComet for Windowsで作成したものです。

---------------------------------------------------------------------

Copyright(C) Seiichi Yoshida (comet@aerith.net). All rights reserved.